Location: Cheching
(60.0667°N, 164.2167°W)
Time: 23:29:47
(UTC+00:00)

DX 1 - Pass Details

Date: 28 January 2021
Orbit: 618 x 631 km, 98.5° (Epoch: 07 March)

Event Time Altitude Azimuth Distance (km) Brightness Sun altitude
Rises 14:00:34 0° 93° (E) 2,915 ? -38.1°
Reaches altitude 10° 14:03:52 10° 66° (ENE) 2,008 ? -37.8°
Maximum altitude 14:05:49 13° 40° (NE) 1,821 ? -37.6°
Enters shadow 14:06:42 12° 27° (NNE) 1,862 ? -37.5°
